[TLELIST] Archives

 

Current TLEs

May 12th 2007 PDT

HST 1 20580U 90037B 07132.21761466 .00000402 00000-0 18380-4 0 8720 2 20580 028.4673 064.6653 0003827 081.9467 278.1558 15.00235255734550 ISS (ZARYA) 1 25544U 98067A 07132.46825816 .00018159 00000-0 10879-3 0 1908 2 25544 051.6365 288.4588 0010199 172.2423 243.8027 15.77840033485137 CXO 1 25867U 99040B 07133.29166667 .00000506 00000-0 00000+0 0 695 2 25867 061.6809 090.0835 6184038 284.6960 359.6571 00.37809580 2121 ____________________________________________________________________ These 2-Line ...Continue Reading

Current TLEs

May 11th 2007 PDT

HST 1 20580U 90037B 07130.88710561 .00000373 00000-0 16117-4 0 8713 2 20580 028.4672 073.3402 0003819 068.5622 291.5374 15.00234404734351 ISS (ZARYA) 1 25544U 98067A 07131.46172501 .00020325 00000-0 12140-3 0 1847 2 25544 051.6365 293.6571 0010404 169.2040 285.7383 15.77811893484970 CXO 1 25867U 99040B 07130.62500000 .00000531 00000-0 00000+0 0 689 2 25867 061.6619 090.1442 6179017 284.7012 356.7027 00.37806995 2115 ____________________________________________________________________ These 2-Line ...Continue Reading

Current TLEs

May 10th 2007 PDT

HST 1 20580U 90037B 07129.62312071 .00000362 00000-0 15224-4 0 8702 2 20580 028.4671 081.5818 0003768 054.9790 305.1149 15.00233745734168 ISS (ZARYA) 1 25544U 98067A 07130.44843233 .00021269 00000-0 12705-3 0 1789 2 25544 051.6359 298.8904 0010422 164.7103 290.8024 15.77773965484819 CXO 1 25867U 99040B 07130.62500000 .00000531 00000-0 00000+0 0 689 2 25867 061.6619 090.1442 6179017 284.7012 356.7027 00.37806995 2115 ____________________________________________________________________ These 2-Line ...Continue Reading

Current TLEs

May 9th 2007 PDT

HST 1 20580U 90037B 07128.49218673 .00000363 00000-0 15301-4 0 8694 2 20580 028.4660 088.9621 0003683 042.3092 317.7773 15.00233408733999 ISS (ZARYA) 1 25544U 98067A 07129.48978817 .00017151 00000-0 10351-3 0 1711 2 25544 051.6357 303.8402 0010650 162.8243 243.9576 15.77717839484666 CXO 1 25867U 99040B 07128.00000000 .00000505 00000-0 00000+0 0 673 2 25867 061.6477 090.1950 6174118 284.7298 359.3590 00.37805337 2106 ____________________________________________________________________ These 2-Line ...Continue Reading

Current TLEs

May 8th 2007 PDT

HST 1 20580U 90037B 07127.36125155 .00000406 00000-0 18710-4 0 8685 2 20580 028.4659 096.3368 0003625 030.7188 329.3614 15.00233207733823 ISS (ZARYA) 1 25544U 98067A 07128.48375272 .00016367 00000-0 99152-4 0 1654 2 25544 051.6351 309.0355 0010518 158.6352 290.2656 15.77678223484502 CXO 1 25867U 99040B 07128.00000000 .00000505 00000-0 00000+0 0 673 2 25867 061.6477 090.1950 6174118 284.7298 359.3590 00.37805337 2106 ____________________________________________________________________ These 2-Line ...Continue Reading

Mail list restored

May 8th 2007 PDT

Subscribers, There were some software issues on the server regarding the mail software, compounded by the move. This was due to running very latest releases of perl and php. There was also a complex selinux policy as well. All mail lists are restored and operating as of 10:30 UTC 8th May 2007. Sorry for any inconvenience. Thanks! ____________________________________________________________________ These 2-Line Elements (TLEs) are direct from DoD/ USSTRATCOM/ US Space Command with permission. Updates are provid ...Continue Reading

Current TLEs

May 7th 2007 PDT

HST 1 20580U 90037B 07126.23031621 .00000423 00000-0 19996-4 0 8679 2 20580 028.4659 103.7124 0003588 018.3805 341.6913 15.00232741733654 ISS (ZARYA) 1 25544U 98067A 07127.40236634 .00016001 00000-0 97186-4 0 1596 2 25544 051.6355 314.6218 0010518 154.5430 268.3872 15.77641121484332 CXO 1 25867U 99040B 07128.00000000 .00000505 00000-0 00000+0 0 673 2 25867 061.6477 090.1950 6174118 284.7298 359.3590 00.37805337 2106 ____________________________________________________________________ These 2-Line ...Continue Reading

Current TLEs

May 7th 2007 PDT

HST 1 20580U 90037B 07126.23031621 .00000423 00000-0 19996-4 0 8679 2 20580 028.4659 103.7124 0003588 018.3805 341.6913 15.00232741733654 ISS (ZARYA) 1 25544U 98067A 07126.45317759 .00017578 00000-0 10648-3 0 1540 2 25544 051.6347 319.5209 0010564 150.6366 277.7834 15.77613595484182 CXO 1 25867U 99040B 07128.00000000 .00000505 00000-0 00000+0 0 673 2 25867 061.6477 090.1950 6174118 284.7298 359.3590 00.37805337 2106 ____________________________________________________________________ These 2-Line ...Continue Reading

Current TLEs

May 5th 2007 PDT

HST 1 20580U 90037B 07124.76675164 .00000440 00000-0 21325-4 0 8668 2 20580 028.4659 113.2560 0003493 002.4898 357.5693 15.00232083733431 ISS (ZARYA) 1 25544U 98067A 07125.43941821 .00017080 00000-0 10375-3 0 1488 2 25544 051.6348 324.7559 0010595 146.5943 280.4404 15.77575461484024 CXO 1 25867U 99040B 07125.37500000 .00000481 00000-0 00000+0 0 667 2 25867 061.6357 090.2438 6168937 284.7779 001.9774 00.37804887 2092 ____________________________________________________________________ These 2-Line ...Continue Reading

Current TLEs

May 4th 2007 PDT

PUBLIC "-//W3C//DTD XHTML 1.0 Transitional//EN" "http://www.w3.org/TR/xhtml1/DTD/xhtml1-transitional.dtd"> ____________________________________________________________________ These 2-Line Elements (TLEs) are direct from DoD/ USSTRATCOM/ US Space Command with permission. Updates are provided automatically daily. By receiving this email, you agree not to transfer any data or information received under this agreement, including the analysis of tracking data, to any other entity without the ...Continue Reading
  • This mailing list is a public mailing list - anyone may join or leave, at any time.
  • This mailing list is announce-only.

International Space Station (ISS) / Hubble Space Telescope (HST) / Chandra X-Ray Observatory Orbital Data via EMAIL

Privacy Policy:

Private list